Showing default

YAOGAN-42 02, 59557

Orbit data source: Space-Track

YAOGAN-42 02, 59557 is a payload satellite owned by PLA GAD (CN) in LEO that was launched on Sat, 20 Apr 2024 UTC via a CHANG ZHENG 2D launch vehicle from the Xichang Space Center, China (XSC). Payload-class satellites include a variety of spacecraft equipped with specific instruments for various scientific and technological missions. These include communications satellites like Starlink; space stations such as the ISS; scientific satellites like the Hubble; Earth observation satellites from companies like Planet Labs, Umbra, and HawkEye 360; GPS; miniature CubeSats for education and research; and military/defense satellites.

Loading next visibility...
Identifier
59557, 2024-075A
Orbit
LEO
Country
Flag of CNCN / PRC
Related business
Manufacturer
SAST
Mission
Operational Defense Imaging
Bus & Motor
Unknown
Mass
~1,500 kg wet, ~1,500 kg dry
Launch date (UTC)
2024-04-20 (2 years ago)
Launch vehicle
CHANG ZHENG 2D
Launch site
Xichang Space Center, China (XSC)
Object type
Payload
Rocket body
Debris
Shape & HBR
Box + 2 Pan, 2.5 m
Radar Cross Section
11.063 m², Large (>1 m²)

Expand to show TLE details & history
Last TLE update: 22 hours ago

TLE from 22 hours ago
0 YAOGAN-42 02
1 59557U 24075A   26172.49952326  .00006345  00000-0  26532-3 0  9996
2 59557  34.9993 242.4718 0005725 212.8148 147.2212 15.22907101120744
Epoch: 2026-06-21T11:59Z
TLE epoch observation values (Epoch: 2026-06-21T11:59:18.809Z)
Latitude
Longitude
152.94452°
Altitude
499.293 km
Speed
7.615 km/s
True Right ascension
16h 09m 53s
True Declination
0° 00' 00"
Sunlit
Object was in full shadow at epoch
Visualization orbit readout
Latitude
Unknown
Longitude
Unknown
Altitude
Unknown
Speed
Unknown
Apparent Right ascension
Unknown
Apparent Declination
Unknown
Sunlit
N/A
Visualization observer readout
Local Sidereal Time
21:29:57
Azimuth
Unknown
Elevation
Unknown
Doppler factor
Unknown
Orbital elements
Apogee altitude
504.265 km
Perigee altitude
496.389 km
Semi-major axis
6,878.464 km
Eccentricity
0.00057
Inclination
34.9993°
RAAN
242.4718°
Arg. of periapsis
212.8148°
True anomaly
147.2567°
Mean anomaly
147.2212°
Eccentric anomaly
147.23895°
Mean motion
3.80457 °/min
Orbital period
94.62 mins
BSTAR
0.00026532
Loading maneuver chart data...
Computing Atmospheric mass density...
Loading historical data...
Loading historical data...
Loading historical data...
Loading historical data...
Loading historical data...
Loading historical data...
Loading historical data...
Other satellites on launch #75 in the year 2024 (2024-04-20 UTC)

Documentation

Showing up to 5 results
|